CAPE
3 3 1 1 1 5 4 2 4 2 2 3 1 1 2 2 0 0 0 0 0 0 0 0 0 0 0 0 0 0 0 0 0 0 0 0 0 0 0 0 0 0 0 0 30
1 5 1 3 3 3 3 4 3 4 1 0 0 0 2 4 0 0 0 0 0 0 0 0 0 0 0 0 0 0 0 0 0 0 0 0 0 0 0 0 0 0 0 0 213
1 2 9 1 1 3 5 6 4 5 4 0 0 0 0 3 0 0 0 0 0 0 0 0 0 0 0 0 0 0 0 0 0 0 0 0 0 0 0 0 0 0 0 0 0
4 1 1 5 2 4 6 4 4 2 2 2 1 0 1 0 0 0 0 0 0 0 0 0 0 0 0 0 0 0 0 0 0 0 0 0 0 0 0 0 0 0 0 0 0
2 1 3 4 5 3 3 3 4 3 2 3 2 1 0 0 0 0 0 0 0 0 0 0 0 0 0 0 0 0 0 0 0 0 0 0 0 0 0 0 0 0 0 0 0
0 3 4 4 2 3 4 3 4 4 5 2 1 1 0 0 0 0 0 0 0 0 0 0 0 0 0 0 0 0 0 0 0 0 0 0 0 0 0 0 0 0 0 0 0
0 0 5 3 1 3 3 1 3 1 1 3 0 1 0 0 0 0 0 0 0 0 0 0 0 0 0 0 0 0 0 0 0 0 0 0 0 0 0 0 0 0 0 0 0
1 4 4 1 0 0 0 0 1 0 0 1 1 0 0 0 0 0 0 0 0 0 0 0 0 0 0 0 0 0 0 0 0 0 0 0 0 0 0 0 0 0 0 0 0
3 5 3 1 0 0 0 0 0 5 3 1 0 0 0 0 0 0 0 0 0 0 0 0 0 0 0 0 0 0 0 0 0 0 0 0 0 0 0 0 0 0 0 0 0
4 3 1 0 0 0 0 0 0 0 0 0 0 0 0 0 0 0 0 0 0 0 0 0 0 0 0 0 0 0 0 0 0 0 0 0 0 0 0 0 0 0 0 0 0
2 1 0 0 0 0 0 0 0 0 0 0 0 0 0 0 0 0 0 0 0 0 0 0 0 0 0 0 0 0 0 0 0 0 0 0 0 0 0 0 0 0 0 0 0
1 0 0 0 0 0 0 0 1 1 0 0 0 0 0 0 0 0 0 0 0 0 0 0 0 0 0 0 0 0 0 0 0 0 0 0 0 0 0 0 0 0 0 0 0
2 0 0 0 0 0 0 0 0 1 0 0 0 0 0 0 0 0 0 0 0 0 0 0 0 0 0 0 0 0 0 0 0 0 0 0 0 0 0 0 0 0 0 0 0
1 0 0 0 0 0 0 0 0 1 0 0 0 0 0 0 0 0 0 0 0 0 0 0 0 0 0 0 0 0 0 0 0 0 0 0 0 0 0 0 0 0 0 0 0
0 0 0 0 0 0 0 0 0 0 0 0 0 0 0 0 0 0 0 0 0 0 0 0 0 0 0 0 0 0 0 0 0 0 0 0 0 0 0 0 0 0 0 0 0
0 0 0 0 0 0 0 0 0 0 0 0 0 0 0 0 0 0 0 0 0 0 0 0 0 0 0 0 0 0 0 0 0 0 0 0 0 0 0 0 0 0 0 0 0
0 0 0 0 0 0 0 0 0 0 0 0 0 0 0 0 0 0 0 0 0 0 0 0 0 0 0 0 0 0 0 0 0 0 0 0 0 0 0 0 0 0 0 0 0
0 0 0 0 0 0 0 0 0 0 0 0 0 0 0 0 0 0 0 0 0 0 0 0 0 0 0 0 0 0 0 0 0 0 0 0 0 0 0 0 0 0 0 0 0
0 0 0 0 0 0 0 0 0 0 0 0 0 0 0 0 0 0 0 0 1 0 0 0 0 0 0 0 0 0 0 0 0 0 0 0 0 0 0 0 0 0 0 0 0
0 0 0 0 0 0 0 0 0 0 0 0 0 0 0 0 0 0 0 0 0 0 0 0 0 0 0 0 0 0 0 0 0 0 0 0 0 0 0 0 0 0 0 0 0
0 0 0 0 0 0 0 0 0 0 0 0 0 0 0 0 0 0 0 0 0 0 0 0 1 0 0 0 0 0 0 0 0 0 2 0 0 0 0 0 0 0 0 0 0
0 0 0 0 0 0 0 0 0 0 0 0 0 0 0 0 0 0 0 1 0 0 0 0 0 0 0 0 0 0 0 0 0 0 0 0 0 0 0 0 0 0 0 0 0
0 0 0 0 0 0 0 0 0 0 0 0 0 0 0 0 0 0 0 0 0 0 0 0 0 0 0 0 0 0 0 0 0 0 0 0 0 0 0 0 0 0 0 0 0
0 0 0 0 0 0 0 0 0 0 0 0 0 0 0 0 0 0 0 0 0 0 0 0 0 0 0 0 0 0 0 0 0 0 0 0 0 0 0 0 0 0 0 0 0
0 0 0 0 0 0 0 0 0 0 0 0 0 0 0 0 0 0 0 0 0 0 0 0 0 0 0 0 0 0 0 0 0 0 0 0 0 0 0 0 0 0 0 0 0
0 0 0 0 0 0 0 0 0 0 0 0 0 0 0 0 0 0 0 0 0 0 0 0 0 0 0 0 0 0 0 0 0 0 0 0 0 0 0 0 0 0 0 0 0
0 0 0 0 0 0 0 0 0 0 0 0 0 0 0 0 0 0 0 0 0 0 0 0 0 0 0 0 0 0 0 0 0 0 0 0 0 0 0 0 0 0 0 0 0
CIN
-1 -1 -1 -1 -1 -1 -1 0 0 0 0 0 0 0 0 0 0 0 0 0 0 0 0 0 0 0 0 0 0 0 0 0 0 0 0 0 0 0 0 0 0 0 0 0 -159
-1 -1 -1 0 -1 -1 0 0 0 0 -1 0 0 -1 0 0 0 0 0 0 0 0 0 0 0 0 0 0 0 0 0 0 0 0 0 0 0 0 0 0 0 0 0 0 -154
0 -2 0 -1 -1 0 -1 0 0 0 0 0 0 0 0 0 0 0 0 0 0 0 0 0 0 0 0 0 0 0 0 0 0 0 0 0 0 0 0 0 0 0 0 0 0
-1 -2 -1 0 0 -1 0 0 0 0 0 0 0 0 0 0 0 0 0 0 0 0 0 0 0 0 0 0 0 0 0 0 0 0 0 0 0 0 0 0 0 0 0 0 0
-1 -1 0 -1 0 0 -1 0 0 0 0 0 0 0 0 0 0 0 0 0 0 0 0 0 0 0 0 0 0 0 0 0 0 0 0 0 0 0 0 0 0 0 0 0 0
-1 0 0 -1 -1 0 0 0 0 0 0 0 0 0 0 0 0 0 0 0 0 0 0 0 0 0 0 0 0 0 0 0 0 0 0 0 0 0 0 0 0 0 0 0 0
0 -1 0 0 0 0 0 0 0 0 -1 0 0 -1 0 0 0 0 0 0 0 0 0 0 0 0 0 0 0 0 0 0 0 0 0 0 0 0 0 0 0 0 0 0 0
-1 0 0 0 0 0 0 0 0 0 0 0 -1 -1 0 0 0 0 0 0 0 0 0 0 0 0 0 0 0 0 0 0 0 0 0 0 0 0 0 0 0 0 0 0 0
-1 0 0 0 0 0 0 0 -1 0 0 -1 0 0 0 0 0 0 0 0 0 0 0 0 0 0 0 0 0 0 0 0 0 0 0 0 0 0 0 0 0 0 0 0 0
-1 0 0 0 0 0 0 0 0 0 0 0 0 0 0 0 0 0 0 0 0 0 0 0 0 0 0 0 0 0 0 0 0 0 0 0 0 0 0 0 0 0 0 0 0
0 0 0 0 0 0 0 0 0 0 0 0 0 0 0 0 0 0 0 0 0 0 0 0 0 0 0 0 0 0 0 0 0 0 0 0 0 0 0 0 0 0 0 0 0
0 0 0 0 0 0 0 0 0 0 0 0 0 0 0 0 0 0 0 0 0 0 0 0 0 0 0 0 0 0 0 0 0 0 0 0 0 0 0 0 0 0 0 0 0
0 0 0 0 0 0 0 0 0 0 0 0 0 0 0 0 0 0 0 0 0 0 0 0 0 0 0 0 0 0 0 0 0 0 0 0 0 0 0 0 0 0 0 0 0
0 0 0 0 0 0 0 0 0 0 0 0 0 0 0 0 0 0 0 0 0 0 0 0 0 0 0 0 0 0 0 0 0 0 0 0 0 0 0 0 0 0 0 0 0
0 0 0 0 0 0 0 0 0 0 0 0 0 0 0 0 0 0 0 0 0 0 0 0 0 0 0 0 0 0 0 0 0 0 0 0 0 0 0 0 0 0 0 0 0
0 0 0 0 0 0 0 0 0 0 0 0 0 0 0 0 0 0 0 0 0 0 0 0 0 0 0 0 0 0 0 0 0 0 0 0 0 0 0 0 0 0 0 0 0
0 0 0 0 0 0 0 0 0 0 0 0 0 0 0 0 0 0 0 0 0 0 0 0 0 0 0 0 0 0 0 0 0 0 0 0 0 0 0 0 0 0 0 0 0
0 0 0 0 0 0 0 0 0 0 0 0 0 0 0 0 0 0 0 0 0 0 0 0 0 0 0 0 0 0 0 0 0 0 0 0 0 0 0 0 0 0 0 0 0
0 0 0 0 0 0 0 0 0 0 0 0 0 0 0 0 0 0 0 0 0 0 0 0 0 0 0 0 0 0 0 0 0 0 0 0 0 0 0 0 0 0 0 0 0
0 0 0 0 0 0 0 0 0 0 0 0 0 0 0 0 0 0 0 0 0 0 0 0 0 0 0 0 0 0 0 0 0 0 0 0 0 0 0 0 0 0 0 0 0
0 0 0 0 0 0 0 0 0 0 0 0 0 0 0 0 0 0 0 0 0 0 0 0 0 0 0 0 0 0 0 0 0 0 -1 -1 0 0 0 0 0 0 0 0 0
0 0 0 0 0 0 0 0 0 0 0 0 0 0 0 0 0 0 0 0 0 0 0 0 0 0 0 0 0 0 0 0 0 0 0 0 0 0 0 0 0 0 0 0 0
0 0 0 0 0 0 0 0 0 0 0 0 0 0 0 0 0 0 0 0 0 0 0 0 0 0 0 0 0 0 0 0 0 0 0 -1 0 0 0 0 0 0 0 0 0
0 0 0 0 0 0 0 0 0 0 0 0 0 0 0 0 0 0 0 0 0 0 0 0 0 0 0 0 0 0 0 0 0 0 0 0 0 0 0 0 0 0 0 0 0
0 0 0 0 0 0 0 0 0 0 0 0 0 0 0 0 0 0 0 0 0 0 0 0 0 0 0 0 0 0 0 0 0 0 0 0 0 0 0 0 0 0 0 0 0
0 0 0 0 0 0 0 0 0 0 0 0 0 0 0 0 0 0 0 0 0 0 0 0 0 0 0 0 0 0 0 0 0 0 0 0 0 0 0 0 0 0 0 0 0
0 0 0 0 0 0 0 0 0 0 0 0 0 0 0 0 0 0 0 0 0 0 0 0 0 0 0 0 0 0 0 0 0 0 0 0 0 0 0 0 0 0 0 0 0
Wind_Speed
31 30 31 31 29 27 27 27 28 27 28 28 29 30 31 31 28 24 24 19 17 15 13 11 13 13 14 17 17 18 25 29 31 31 30 22 26 23 23 27 25 24 27 23 15
30 31 30 29 28 26 26 27 26 25 26 28 28 29 30 30 28 24 20 19 17 10 12 10 13 12 16 18 18 19 25 28 27 30 30 25 28 29 26 25 26 25 24 23 14
30 32 30 30 30 29 30 26 21 18 22 24 26 27 28 27 26 21 22 15 14 9 13 14 13 15 19 19 19 23 30 28 29 28 28 32 29 27 30 33 31 30 27 21 15
31 32 32 32 32 33 31 24 18 14 13 17 21 24 25 21 26 18 19 14 12 12 13 13 15 18 22 23 21 30 30 35 32 31 28 28 27 30 32 35 30 27 26 20 18
32 33 34 33 34 34 33 15 12 9 8 9 13 19 19 18 22 19 17 15 15 15 16 17 17 19 24 23 25 29 33 32 32 33 35 30 34 38 34 28 24 25 24 24 24
32 33 34 34 34 32 31 22 9 3 3 6 8 11 15 17 18 16 15 15 16 15 17 17 20 20 23 24 25 26 29 34 32 33 31 33 39 39 36 35 34 32 32 31 29
31 34 34 33 32 31 30 30 1 7 7 9 10 11 10 15 18 17 16 16 15 15 17 18 18 20 21 26 25 29 34 34 34 30 29 28 44 44 40 37 35 36 38 37 34
31 33 33 32 31 30 29 28 21 20 17 15 14 12 11 12 16 16 16 18 17 16 16 16 15 20 22 24 26 28 29 32 24 24 26 22 42 33 28 33 36 42 43 40 39
31 32 32 32 31 30 29 21 21 21 19 18 16 14 15 12 12 14 13 16 15 16 17 17 16 21 22 27 32 28 36 33 34 24 26 22 34 31 27 29 34 34 35 39 43
31 32 32 32 29 30 26 18 20 19 19 18 18 17 16 16 13 13 13 13 15 14 16 17 20 24 24 25 36 32 32 32 33 25 26 31 38 39 33 30 34 36 39 41 43
31 32 32 32 28 30 22 18 18 16 21 18 18 17 16 16 13 14 13 12 13 12 19 18 22 25 26 26 30 30 33 39 36 31 35 39 40 44 38 35 38 41 41 44 44
32 32 32 31 25 27 22 19 19 17 18 18 18 17 15 15 14 15 13 14 14 16 14 17 27 27 25 24 28 32 37 41 40 35 35 40 44 44 44 42 43 45 45 44 45
32 33 33 30 23 21 22 21 22 16 19 18 16 17 17 15 15 16 14 15 14 16 14 16 21 19 18 23 27 31 35 36 37 37 38 41 46 39 33 29 35 41 43 43 46
32 33 32 28 19 21 20 27 22 15 21 21 17 15 15 15 16 16 15 16 16 19 19 20 19 18 19 24 25 36 30 33 35 33 38 29 47 39 38 37 35 38 35 39 42
32 33 28 24 20 22 25 26 19 17 24 19 17 16 16 15 17 17 15 16 18 19 18 22 21 21 20 20 13 25 23 27 30 34 39 38 40 37 31 37 37 31 28 32 36
32 32 25 22 21 23 27 20 17 23 23 20 19 20 19 17 17 17 17 16 19 22 20 22 22 23 20 21 16 20 22 24 26 30 41 38 39 41 35 31 30 28 35 34 31
33 28 22 22 27 29 22 18 25 25 24 25 23 24 25 22 21 21 21 22 25 29 28 26 24 22 20 23 20 20 24 30 32 32 41 31 36 41 37 33 31 33 32 31 29
33 22 22 22 28 23 18 20 26 23 24 24 23 26 24 25 23 25 23 24 25 26 31 33 31 21 19 21 23 20 22 26 34 33 35 31 36 30 24 30 29 25 23 21 22
29 20 22 28 26 19 20 24 24 23 22 25 24 26 25 23 24 26 23 25 24 27 29 32 31 23 23 22 20 21 24 23 32 32 37 35 34 35 32 19 18 18 19 22 27
25 20 24 31 24 19 21 22 21 19 21 23 26 24 26 27 27 27 24 24 24 26 22 26 36 26 25 23 23 24 21 26 26 37 39 33 34 32 23 20 24 25 22 25 31
22 20 25 32 21 21 22 20 18 18 20 21 22 23 25 27 27 28 27 24 24 27 24 28 29 31 27 26 27 25 27 26 28 33 39 40 34 23 21 26 25 22 25 32 31
22 23 29 27 23 21 20 19 18 18 20 20 20 22 25 26 27 27 27 25 24 26 29 27 32 39 34 30 28 29 31 30 36 37 37 42 48 34 31 25 26 29 33 34 32
23 24 25 23 23 22 19 19 19 18 19 20 22 22 22 26 30 26 27 23 23 27 29 28 30 43 40 30 26 30 31 30 37 36 48 51 44 22 33 36 34 36 40 40 39
24 26 25 23 20 21 22 21 20 18 20 19 21 21 23 26 24 28 29 26 27 31 30 27 32 36 48 43 39 42 39 38 35 42 47 56 54 47 46 47 47 46 45 43 42
25 23 23 26 24 23 21 20 22 23 20 20 22 22 24 27 29 31 30 31 29 30 26 28 37 37 41 44 45 50 52 49 46 46 50 61 58 54 54 53 52 52 49 47 46
24 24 22 23 21 21 21 22 22 21 21 23 24 26 23 27 28 33 32 32 33 27 29 28 41 39 47 45 47 53 49 48 53 52 56 59 66 48 46 48 50 48 47 48 48
21 21 23 22 23 24 23 22 21 21 23 21 25 27 29 29 29 29 30 31 29 30 31 31 35 38 53 43 45 54 48 48 46 46 51 60 55 47 50 51 50 50 49 49 47
Wind_Direction
345 346 345 345 350 351 350 345 340 336 330 324 318 314 312 312 315 317 307 312 316 310 314 304 297 293 283 280 283 282 278 277 277 279 279 289 280 283 287 277 278 277 277 286 289
348 347 350 350 352 354 352 347 345 343 337 325 321 315 313 313 310 308 316 315 312 318 309 299 289 289 284 279 280 271 274 281 285 282 281 283 281 279 280 279 277 280 281 283 278
349 344 349 350 350 350 343 351 355 356 345 336 325 318 313 314 306 304 314 320 320 328 310 302 296 288 282 284 277 278 274 281 284 290 287 281 281 278 276 273 275 277 281 281 274
345 342 347 345 346 340 343 357 1 5 4 353 339 325 317 322 294 311 317 327 329 320 311 306 294 285 282 278 282 278 281 277 282 285 288 286 285 277 274 272 281 282 282 280 271
343 337 336 340 326 324 327 18 18 18 23 21 4 343 335 331 305 321 318 320 315 307 298 293 289 287 282 287 284 280 280 283 284 282 280 286 277 273 274 279 281 280 280 276 269
343 339 332 326 324 321 314 9 29 43 65 59 48 25 352 337 328 337 335 326 315 309 296 293 292 289 289 288 285 292 288 283 286 284 285 281 274 272 272 273 273 274 271 268 266
345 333 326 322 318 320 310 317 233 63 79 80 78 69 42 349 330 327 327 327 330 322 303 297 296 290 293 289 291 289 285 285 284 288 288 286 270 266 270 272 272 269 265 263 263
344 333 323 322 319 316 311 321 18 27 54 69 75 75 51 38 345 339 329 320 319 318 318 317 305 296 291 295 292 289 289 284 301 296 289 286 271 282 285 274 271 265 261 261 259
339 331 323 323 323 319 313 360 14 32 47 57 48 48 29 72 66 27 4 338 336 325 314 317 308 296 296 286 283 286 278 280 286 297 294 284 282 287 288 280 274 273 268 263 258
337 331 325 322 326 325 329 15 10 23 29 34 35 29 28 27 54 64 63 41 352 340 324 314 303 292 290 284 276 280 281 282 281 294 294 285 279 276 284 287 278 273 269 265 260
332 329 325 322 333 334 352 3 8 14 6 12 11 11 13 22 41 30 41 37 27 14 319 313 299 292 288 284 282 285 283 278 282 289 286 280 280 272 280 283 278 270 270 265 260
330 327 324 321 334 341 355 0 3 0 358 2 4 6 10 10 4 7 19 5 358 343 349 329 298 297 298 292 285 283 280 279 282 287 280 279 277 275 272 277 274 268 267 266 259
328 326 321 320 335 348 358 354 343 1 351 353 360 358 0 9 3 1 6 3 356 346 345 333 327 336 314 299 290 285 282 283 282 286 282 281 277 279 287 290 285 273 269 267 261
328 326 323 324 341 341 348 333 340 357 336 338 346 354 353 355 349 353 356 350 345 337 337 331 333 327 320 307 298 286 290 285 285 284 277 286 273 277 283 286 287 279 279 273 265
330 328 333 344 342 339 332 329 344 349 326 339 341 347 344 339 339 340 346 341 330 330 331 324 326 326 323 321 328 305 308 294 290 282 280 276 276 276 288 286 287 292 290 286 274
331 331 338 340 341 338 329 339 346 324 317 327 334 333 332 333 332 333 333 332 329 321 318 313 317 315 317 322 324 322 316 307 297 287 275 275 273 273 278 290 296 299 292 287 285
331 335 345 346 332 328 336 340 320 313 326 322 322 325 322 320 322 323 319 316 312 309 310 312 310 312 312 308 312 308 306 296 288 281 274 283 274 271 278 283 292 294 297 296 289
334 345 350 351 336 341 347 332 314 322 321 327 327 323 320 323 318 316 313 309 317 311 305 300 299 310 314 304 304 304 298 294 287 286 281 285 272 277 290 296 294 305 316 325 318
341 351 352 341 341 355 342 323 322 326 331 327 326 322 320 324 322 317 315 310 315 316 302 299 294 307 305 305 303 302 291 299 291 294 285 279 279 281 283 299 308 313 322 323 324
344 348 348 336 346 350 337 328 332 340 337 332 321 326 319 318 316 317 312 318 314 318 317 306 293 301 302 302 296 292 301 291 287 281 278 280 278 273 291 296 295 298 308 315 321
350 345 346 335 354 348 333 334 338 343 341 335 328 323 319 316 314 310 310 314 316 316 316 309 297 294 300 294 293 291 287 287 288 279 275 275 276 286 295 305 301 298 301 306 311
345 339 340 341 341 346 341 342 345 342 340 334 330 324 318 317 313 309 306 308 318 316 308 310 299 288 288 294 295 289 286 284 276 276 275 272 263 283 297 303 303 296 297 304 302
342 341 346 349 337 343 346 344 342 340 338 332 326 325 321 315 312 309 307 311 315 313 309 310 299 291 290 291 293 284 286 284 284 278 268 265 264 296 294 291 291 292 292 294 293
339 335 341 351 355 346 340 340 339 340 335 334 329 324 320 316 313 309 307 309 309 308 307 302 294 287 280 285 290 282 281 282 282 273 273 263 269 277 281 283 282 286 288 288 289
336 334 339 332 336 340 342 339 334 333 333 329 327 319 317 314 311 306 306 307 308 310 307 302 291 290 287 286 284 279 276 276 275 274 271 262 270 276 278 278 278 282 286 284 282
333 332 335 333 338 336 336 334 329 330 329 324 319 319 314 309 306 305 306 306 303 305 302 301 292 292 285 286 283 277 276 275 273 274 272 273 268 282 283 284 281 285 287 283 281
336 337 334 331 332 332 330 330 330 328 324 316 317 317 312 305 307 306 304 303 300 300 300 297 296 294 283 288 285 275 276 276 276 275 275 269 276 283 281 280 281 282 283 281 279